Regional Weather Roundup
Issued by NWS

Home | Current Version | Previous Version | Graphics & Text | Print | Product List | Glossary On
Versions: 1 2 3 4 5 6 7 8 9 10 11 12 13 14 15 16 17 18 19 20 21 22 23 24 25 26 27 28 29 30 31 32 33 34 35 36 37 38 39 40 41 42 43 44 45 46 47 48 49 50
000
ASUS45 KCYS 182010
RWRWY

WYOMING REGIONAL WEATHER ROUNDUP
NATIONAL WEATHER SERVICE CHEYENNE WY
100 PM MST THU DEC 18 2014

NOTE:  "FAIR" INDICATES FEW OR NO CLOUDS BELOW 12,000 FEET
WITH NO SIGNIFICANT WEATHER AND/OR OBSTRUCTIONS TO VISIBILITY.

WYZ001-182100-
YELLOWSTONE NATIONAL PARK

CITY           SKY/WX    TMP DP  RH WIND       PRES   REMARKS
LK YELLOWSTONE   N/A     25  17  72 VRB6      30.05F WCI  18
W YELLOWSTONE  NOT AVBL

$$
WYZ002>013-054>058-071-098>099-182100-
NORTHERN WYOMING

CITY           SKY/WX    TMP DP  RH WIND       PRES   REMARKS
JACKSON        LGT SNOW  27  23  86 CALM      30.09F
CODY           FAIR      25  16  68 NE5       29.98F WCI  19
GREYBULL       FAIR      22  16  78 W3        30.06F
WORLAND        FAIR      16  11  80 SW5       30.04F WCI   9
SHERIDAN       FAIR      35  21  56 CALM      29.95F
BUFFALO        FAIR      41  17  38 S12       29.96F
GILLETTE       FAIR      38  21  50 SW14      29.97F WCI  30
HULETT           N/A     36  28  75 MISG        N/A
NEWCASTLE      FAIR      34  30  86 CALM      30.00F

$$
WYZ014>020-022>026-101>103-182100-
CENTRAL WYOMING

CITY           SKY/WX    TMP DP  RH WIND       PRES   REMARKS
BIG PINEY      FAIR      31  13  47 W3        30.07F
PINEDALE       FAIR      30  19  64 NW10      30.07F WCI  21
DUBOIS         FAIR      32  14  47 W23       30.00F WCI  19
LANDER         FAIR      11   5  77 CALM      30.03F
RIVERTON       CLOUDY    12   9  87 CALM      30.05F FOG
CASPER         FAIR      29  20  69 SW14      30.03F WCI  18
DOUGLAS        FAIR      38  20  48 W15       30.02F WCI  29

$$
WYZ021-027>030-104>119-182100-
SOUTHERN WYOMING

CITY           SKY/WX    TMP DP  RH WIND       PRES   REMARKS
EVANSTON       CLOUDY    31  23  72 SW10      30.09F WCI  22
KEMMERER       CLOUDY    32  23  69 SW12      30.08F WCI  23
FORT BRIDGER   CLOUDY    35  21  56 W13       30.11F WCI  26
ROCK SPRINGS   FAIR      31  18  58 W10       30.07F WCI  22
DIXON          CLOUDY    27  23  85 CALM      30.14F
RAWLINS        FAIR      28  20  71 W18       30.07F WCI  15
SARATOGA       FAIR      27  18  69 CALM      30.08F
LARAMIE        FAIR      28  17  63 N9        29.99F WCI  19
CHEYENNE       FAIR      41  12  30 W20       29.99F
TORRINGTON     FAIR      27  23  85 S3        30.01F
PINE BLUFFS    FAIR      43  19  39 NW14      30.01S

$$


USA.gov is the U.S. government's official web portal to all federal, state and local government web resources and services.